This is the latest recevied weather packets stored in our database for station/object VK6WB. If no packets are shown the sender has not sent any weather packets the latest 10 day(s).
| Time | Temp. | Humidity | Pressure | Rain* | Wind** | Luminosity | Snow |
|---|---|---|---|---|---|---|---|
| 1778076005 | 16.11° C | 53% | 1025.6 hPa | 0 mm | - | 893 W/m² | - |
| 1778075405 | 16.11° C | 53% | 1025.5 hPa | 0 mm | - | 789 W/m² | - |
| 1778074805 | 16.11° C | 53% | 1025.4 hPa | 0 mm | - | 789 W/m² | - |
| 1778074205 | 16.67° C | 53% | 1025.5 hPa | 0 mm | - | 738 W/m² | - |
| 1778073605 | 16.67° C | 52% | 1025.2 hPa | 0 mm | - | 634 W/m² | - |
| 1778073005 | 17.22° C | 52% | 1025.3 hPa | 0 mm | - | 583 W/m² | - |
| 1778072405 | 17.22° C | 52% | 1025.3 hPa | 0 mm | - | 531 W/m² | - |
| 1778071805 | 17.22° C | 52% | 1025.2 hPa | 0 mm | - | 531 W/m² | - |
| 1778071205 | 17.22° C | 52% | 1025.1 hPa | 0 mm | - | 427 W/m² | - |
| 1778070605 | 17.78° C | 52% | 1025.1 hPa | 0 mm | - | 324 W/m² | - |
| 1778070005 | 17.78° C | 51% | 1025 hPa | 0 mm | - | 272 W/m² | - |
| 1778069405 | 17.22° C | 54% | 1025 hPa | 0 mm | - | 221 W/m² | - |
| 1778068805 | 17.22° C | 54% | 1024.8 hPa | 0 mm | - | 220 W/m² | - |
| 1778068205 | 17.22° C | 54% | 1024.7 hPa | 0 mm | - | 221 W/m² | - |
| 1778067605 | 17.22° C | 54% | 1024.7 hPa | 0 mm | - | 220 W/m² | - |
| 1778067005 | 17.78° C | 53% | 1024.7 hPa | 0 mm | - | 272 W/m² | - |
| 1778066405 | 17.78° C | 53% | 1024.7 hPa | 0 mm | - | 272 W/m² | - |
| 1778065805 | 18.33° C | 53% | 1024.7 hPa | 0 mm | - | 272 W/m² | - |
| 1778065204 | 18.33° C | 52% | 1024.4 hPa | 0 mm | - | 324 W/m² | - |
| 1778064605 | 18.33° C | 52% | 1024.3 hPa | 0 mm | - | 272 W/m² | - |
| 1778064005 | 18.33° C | 52% | 1024.4 hPa | 0 mm | - | 220 W/m² | - |
| 1778063405 | 18.89° C | 52% | 1024.2 hPa | 0 mm | - | 169 W/m² | - |
| 1778062805 | 18.89° C | 52% | 1024.1 hPa | 0 mm | - | 117 W/m² | - |
| 1778062204 | 19.44° C | 50% | 1023.9 hPa | 0 mm | - | 65 W/m² | - |
| 1778061605 | 19.44° C | 49% | 1023.8 hPa | 0 mm | - | 13 W/m² | - |
* Rain latest hour (hover to see other rain measurements)
** Current wind speed in m/s (hover to see current wind gust speed)